| time (UTC) | temp F | wind direction | speed MPH | gust MPH | rain 1hr in | rain 24hr in | rain mn in | humidity % | barometer mb |
| 20260903065907 | 73 | 80 | 2.0 | 4.0 | 0.00 | 0.71 | 0.00 | 86 | 1011.3 |
| 20260903065138 | 73 | 80 | 2.0 | 3.0 | 0.00 | 0.71 | 0.00 | 86 | 1011.4 |
| 20260903064636 | 74 | 80 | 2.0 | 3.0 | 0.00 | 0.71 | 0.00 | 86 | 1011.4 |
| 20260903064136 | 74 | 80 | 2.0 | 3.0 | 0.00 | 0.71 | 0.00 | 86 | 1011.3 |
| 20260903063636 | 74 | 80 | 2.0 | 3.0 | 0.00 | 0.71 | 0.00 | 85 | 1011.4 |
| 20260903063135 | 74 | 80 | 2.0 | 4.0 | 0.00 | 0.71 | 0.00 | 85 | 1011.5 |
| 20260903062627 | 74 | 80 | 1.0 | 4.0 | 0.00 | 0.71 | 0.00 | 85 | 1011.4 |
| 20260903062122 | 74 | 75 | 2.0 | 3.0 | 0.00 | 0.71 | 0.00 | 85 | 1011.4 |
| 20260903061615 | 74 | 75 | 2.0 | 3.0 | 0.00 | 0.71 | 0.00 | 85 | 1011.5 |
| 20260903061110 | 74 | 75 | 3.0 | 5.0 | 0.00 | 0.71 | 0.00 | 85 | 1011.5 |
| 20260903060603 | 74 | 75 | 3.0 | 5.0 | 0.00 | 0.71 | 0.00 | 85 | 1011.5 |
| 20260903060058 | 74 | 83 | 3.0 | 6.0 | 0.00 | 0.71 | 0.00 | 86 | 1011.5 |
| 20260903055552 | 74 | 90 | 3.0 | 6.0 | 0.00 | 0.71 | 0.00 | 86 | 1011.5 |
| 20260903055046 | 74 | 89 | 3.0 | 5.0 | 0.00 | 0.71 | 0.00 | 86 | 1011.5 |
| 20260903054546 | 74 | 82 | 3.0 | 4.0 | 0.00 | 0.71 | 0.00 | 86 | 1011.4 |
| 20260903054308 | 74 | 76 | 3.0 | 5.0 | 0.00 | 0.71 | 0.00 | 85 | 1011.5 |
| 20260903053545 | 74 | 76 | 3.0 | 6.0 | 0.00 | 0.71 | 0.00 | 86 | 1011.5 |
| 20260903053044 | 74 | 83 | 3.0 | 6.0 | 0.00 | 0.71 | 0.00 | 86 | 1011.5 |
| 20260903052543 | 74 | 86 | 3.0 | 6.0 | 0.00 | 0.71 | 0.00 | 86 | 1011.5 |
| 20260903052043 | 74 | 88 | 3.0 | 4.0 | 0.00 | 0.71 | 0.00 | 86 | 1011.5 |
| 20260903051543 | 74 | 88 | 3.0 | 5.0 | 0.00 | 0.72 | 0.00 | 86 | 1011.5 |
| 20260903051522 | 74 | 88 | 3.0 | 5.0 | 0.00 | 0.75 | 0.00 | 86 | 1011.6 |
| 20260903050542 | 74 | 84 | 3.0 | 4.0 | 0.00 | 0.76 | 0.00 | 86 | 1011.4 |
| 20260903050042 | 74 | 80 | 3.0 | 5.0 | 0.00 | 0.78 | 0.00 | 86 | 1011.6 |
| 20260903045540 | 74 | 81 | 3.0 | 5.0 | 0.00 | 0.78 | 0.78 | 86 | 1011.5 |
| 20260903045040 | 74 | 80 | 3.0 | 4.0 | 0.00 | 0.79 | 0.78 | 87 | 1011.5 |
| 20260903044541 | 74 | 81 | 3.0 | 4.0 | 0.00 | 0.79 | 0.78 | 87 | 1011.5 |
| 20260903044042 | 74 | 85 | 1.0 | 4.0 | 0.00 | 0.80 | 0.78 | 87 | 1011.6 |
| 20260903044023 | 74 | 86 | 0.0 | 0.0 | 0.00 | 0.81 | 0.78 | 87 | 1011.5 |
| 20260903043041 | 74 | 87 | 0.0 | 0.0 | 0.00 | 0.81 | 0.78 | 87 | 1011.6 |
| 20260903042541 | 74 | 87 | 0.0 | 0.0 | 0.00 | 0.81 | 0.78 | 87 | 1011.6 |
| 20260903042041 | 74 | 78 | 0.0 | 0.0 | 0.00 | 0.81 | 0.78 | 87 | 1011.6 |
| 20260903041540 | 74 | 78 | 0.0 | 0.0 | 0.00 | 0.81 | 0.78 | 87 | 1011.6 |
| 20260903041041 | 74 | 78 | 0.0 | 0.0 | 0.00 | 0.81 | 0.78 | 87 | 1011.6 |
| 20260903040541 | 74 | 78 | 0.0 | 0.0 | 0.00 | 0.81 | 0.78 | 87 | 1011.6 |
| 20260903040310 | 74 | 78 | 0.0 | 0.0 | 0.00 | 0.81 | 0.78 | 87 | 1011.8 |
| 20260903035540 | 74 | 78 | 0.0 | 0.0 | 0.00 | 0.81 | 0.78 | 87 | 1011.8 |
| 20260903035300 | 74 | 78 | 0.0 | 0.0 | 0.00 | 0.81 | 0.78 | 87 | 1011.8 |
| 20260903034540 | 74 | 78 | 0.0 | 0.0 | 0.00 | 0.81 | 0.78 | 87 | 1011.8 |
| 20260903034041 | 74 | 78 | 0.0 | 0.0 | 0.00 | 0.81 | 0.78 | 87 | 1011.7 |
| 20260903033541 | 74 | 76 | 0.0 | 0.0 | 0.00 | 0.81 | 0.78 | 87 | 1011.7 |
| 20260903033040 | 74 | 76 | 0.0 | 0.0 | 0.00 | 0.81 | 0.78 | 87 | 1011.8 |
| 20260903032759 | 74 | 113 | 0.0 | 0.0 | 0.00 | 0.81 | 0.78 | 86 | 1011.7 |
| 20260903032039 | 74 | 113 | 0.0 | 0.0 | 0.00 | 0.81 | 0.78 | 86 | 1011.7 |
| 20260903031759 | 74 | 113 | 0.0 | 0.0 | 0.00 | 0.81 | 0.78 | 86 | 1011.8 |
| 20260903031300 | 75 | 113 | 0.0 | 0.0 | 0.00 | 0.81 | 0.78 | 86 | 1011.8 |
| 20260903030532 | 75 | 113 | 0.0 | 0.0 | 0.00 | 0.81 | 0.78 | 86 | 1011.7 |
| 20260903030245 | 75 | 113 | 0.0 | 0.0 | 0.00 | 0.81 | 0.78 | 86 | 1011.7 |
| 20260903025521 | 75 | 113 | 0.0 | 0.0 | 0.00 | 0.81 | 0.78 | 86 | 1011.7 |
| 20260903025013 | 75 | 113 | 0.0 | 0.0 | 0.00 | 0.81 | 0.78 | 86 | 1011.7 |
| 20260903024508 | 75 | 113 | 0.0 | 0.0 | 0.00 | 0.81 | 0.78 | 85 | 1011.6 |
| 20260903024003 | 75 | 113 | 0.0 | 0.0 | 0.00 | 0.81 | 0.78 | 85 | 1011.7 |
| 20260903023456 | 75 | 136 | 0.0 | 0.0 | 0.00 | 0.81 | 0.78 | 84 | 1011.9 |
| 20260903022949 | 76 | 192 | 0.0 | 0.0 | 0.00 | 0.81 | 0.78 | 84 | 1011.9 |
| 20260903022444 | 76 | 192 | 0.0 | 0.0 | 0.00 | 0.81 | 0.78 | 84 | 1011.9 |
| 20260903021938 | 76 | 192 | 0.0 | 0.0 | 0.00 | 0.81 | 0.78 | 84 | 1011.8 |
| 20260903021653 | 76 | 192 | 0.0 | 0.0 | 0.00 | 0.81 | 0.78 | 84 | 1011.7 |
| 20260903020926 | 76 | 193 | 0.0 | 0.0 | 0.00 | 0.81 | 0.78 | 83 | 1011.7 |
| 20260903020421 | 77 | 193 | 0.0 | 0.0 | 0.00 | 0.81 | 0.78 | 82 | 1011.6 |
| 20260903015914 | 77 | 193 | 0.0 | 0.0 | 0.00 | 0.81 | 0.78 | 82 | 1011.5 |
| 20260903015407 | 77 | 193 | 0.0 | 0.0 | 0.00 | 0.81 | 0.78 | 82 | 1011.5 |
| 20260903014902 | 77 | 193 | 0.0 | 0.0 | 0.00 | 0.81 | 0.78 | 82 | 1011.5 |
| 20260903014355 | 78 | 193 | 0.0 | 0.0 | 0.00 | 0.81 | 0.78 | 82 | 1011.4 |
| 20260903013850 | 78 | 193 | 0.0 | 0.0 | 0.00 | 0.81 | 0.78 | 81 | 1011.3 |
| 20260903013606 | 78 | 193 | 0.0 | 0.0 | 0.00 | 0.81 | 0.78 | 81 | 1011.3 |
| 20260903012838 | 78 | 193 | 0.0 | 0.0 | 0.00 | 0.81 | 0.78 | 81 | 1011.3 |
| 20260903012332 | 79 | 193 | 0.0 | 0.0 | 0.00 | 0.81 | 0.78 | 80 | 1011.2 |
| 20260903011826 | 79 | 193 | 0.0 | 0.0 | 0.00 | 0.81 | 0.78 | 79 | 1011.2 |
| 20260903011319 | 79 | 193 | 0.0 | 0.0 | 0.00 | 0.81 | 0.78 | 79 | 1011.2 |
| 20260903010814 | 80 | 193 | 0.0 | 0.0 | 0.00 | 0.81 | 0.78 | 79 | 1011.1 |
| 20260903010308 | 80 | 193 | 0.0 | 0.0 | 0.00 | 0.81 | 0.78 | 78 | 1011.0 |
| 20260903010024 | 80 | 193 | 0.0 | 0.0 | 0.00 | 0.81 | 0.78 | 78 | 1011.0 |
| 20260903005256 | 81 | 193 | 0.0 | 0.0 | 0.00 | 0.81 | 0.78 | 77 | 1010.9 |
| 20260903004749 | 81 | 193 | 0.0 | 0.0 | 0.00 | 0.81 | 0.78 | 76 | 1011.0 |
| 20260903004244 | 81 | 193 | 0.0 | 0.0 | 0.00 | 0.81 | 0.78 | 75 | 1011.0 |
| 20260903003738 | 82 | 193 | 0.0 | 0.0 | 0.00 | 0.81 | 0.78 | 75 | 1011.1 |
| 20260903003232 | 82 | 193 | 0.0 | 0.0 | 0.00 | 0.81 | 0.78 | 74 | 1011.0 |
| 20260903002727 | 83 | 193 | 0.0 | 0.0 | 0.00 | 0.81 | 0.78 | 74 | 1011.0 |
| 20260903002219 | 83 | 193 | 0.0 | 0.0 | 0.00 | 0.81 | 0.78 | 73 | 1011.1 |
| 20260903001714 | 83 | 193 | 0.0 | 0.0 | 0.00 | 0.81 | 0.78 | 72 | 1010.9 |
| 20260903001208 | 84 | 193 | 0.0 | 0.0 | 0.00 | 0.81 | 0.78 | 72 | 1010.9 |
| 20260903000924 | 84 | 193 | 0.0 | 0.0 | 0.00 | 0.81 | 0.78 | 71 | 1010.8 |
| 20260903000156 | 85 | 193 | 0.0 | 0.0 | 0.00 | 0.81 | 0.78 | 71 | 1010.8 |
| 20260902235650 | 85 | 193 | 0.0 | 0.0 | 0.00 | 0.81 | 0.78 | 71 | 1010.8 |
| 20260902235143 | 85 | 193 | 0.0 | 0.0 | 0.00 | 0.81 | 0.78 | 70 | 1010.8 |
| 20260902234901 | 85 | 193 | 0.0 | 0.0 | 0.00 | 0.81 | 0.78 | 69 | 1010.7 |
| 20260902234132 | 86 | 193 | 0.0 | 0.0 | 0.00 | 0.81 | 0.78 | 67 | 1010.7 |
| 20260902233625 | 86 | 193 | 0.0 | 0.0 | 0.00 | 0.81 | 0.78 | 67 | 1010.6 |
| 20260902233343 | 86 | 193 | 0.0 | 2.0 | 0.00 | 0.81 | 0.78 | 66 | 1010.5 |
| 20260902232613 | 86 | 193 | 1.0 | 4.0 | 0.00 | 0.81 | 0.78 | 65 | 1010.6 |
| 20260902232110 | 86 | 193 | 1.0 | 4.0 | 0.00 | 0.81 | 0.78 | 66 | 1010.6 |
| 20260902231602 | 86 | 187 | 1.0 | 3.0 | 0.00 | 0.81 | 0.78 | 65 | 1010.7 |
| 20260902231055 | 86 | 187 | 1.0 | 7.0 | 0.00 | 0.81 | 0.78 | 65 | 1010.7 |
| 20260902230550 | 87 | 186 | 3.0 | 7.0 | 0.00 | 0.81 | 0.78 | 64 | 1010.7 |
| 20260902230043 | 87 | 186 | 4.0 | 7.0 | 0.00 | 0.81 | 0.78 | 64 | 1010.6 |
| 20260902225538 | 87 | 159 | 3.0 | 9.0 | 0.00 | 0.81 | 0.78 | 64 | 1010.7 |
| 20260902225255 | 87 | 166 | 3.0 | 7.0 | 0.00 | 0.81 | 0.78 | 63 | 1010.7 |
| 20260902224526 | 87 | 218 | 3.0 | 7.0 | 0.00 | 0.81 | 0.78 | 63 | 1010.7 |
| 20260902224020 | 87 | 200 | 2.0 | 7.0 | 0.00 | 0.81 | 0.78 | 63 | 1010.7 |
| 20260902223514 | 87 | 223 | 2.0 | 5.0 | 0.00 | 0.81 | 0.78 | 64 | 1010.8 |
| 20260902223008 | 87 | 217 | 3.0 | 5.0 | 0.00 | 0.81 | 0.78 | 64 | 1010.8 |
| 20260902222501 | 87 | 223 | 2.0 | 5.0 | 0.00 | 0.81 | 0.78 | 63 | 1010.8 |
| 20260902221957 | 87 | 220 | 2.0 | 4.0 | 0.00 | 0.81 | 0.78 | 64 | 1010.8 |
| 20260902221450 | 87 | 181 | 2.0 | 5.0 | 0.00 | 0.81 | 0.78 | 64 | 1010.8 |
| 20260902221202 | 87 | 209 | 1.0 | 5.0 | 0.00 | 0.81 | 0.78 | 64 | 1010.7 |
| 20260902220437 | 87 | 185 | 2.0 | 4.0 | 0.00 | 0.81 | 0.78 | 64 | 1010.9 |
| 20260902215931 | 87 | 198 | 3.0 | 7.0 | 0.00 | 0.81 | 0.78 | 63 | 1010.8 |
| 20260902215647 | 87 | 165 | 3.0 | 6.0 | 0.00 | 0.81 | 0.78 | 64 | 1010.8 |
| 20260902214920 | 87 | 197 | 3.0 | 8.0 | 0.00 | 0.81 | 0.78 | 64 | 1010.9 |
| 20260902214414 | 87 | 227 | 3.0 | 8.0 | 0.00 | 0.81 | 0.78 | 64 | 1010.9 |
| 20260902213907 | 87 | 180 | 3.0 | 7.0 | 0.00 | 0.81 | 0.78 | 64 | 1010.8 |
| 20260902213401 | 87 | 184 | 3.0 | 8.0 | 0.00 | 0.81 | 0.78 | 64 | 1010.9 |
| 20260902212857 | 87 | 174 | 1.0 | 7.0 | 0.00 | 0.81 | 0.78 | 65 | 1011.0 |
| 20260902212350 | 87 | 174 | 2.0 | 6.0 | 0.00 | 0.81 | 0.78 | 64 | 1011.0 |
| 20260902211844 | 87 | 221 | 2.0 | 7.0 | 0.00 | 0.81 | 0.78 | 64 | 1011.0 |
| 20260902211337 | 87 | 169 | 2.0 | 6.0 | 0.00 | 0.81 | 0.78 | 66 | 1011.0 |
| 20260902211318 | 87 | 249 | 4.0 | 10.0 | 0.00 | 0.81 | 0.78 | 63 | 1011.0 |
| 20260902210600 | 87 | 173 | 3.0 | 10.0 | 0.00 | 0.81 | 0.78 | 64 | 1011.0 |
| 20260902205838 | 87 | 213 | 1.0 | 5.0 | 0.00 | 0.81 | 0.78 | 62 | 1011.0 |
| 20260902205337 | 87 | 214 | 2.0 | 5.0 | 0.00 | 0.81 | 0.78 | 64 | 1011.1 |
| 20260902204837 | 88 | 203 | 3.0 | 7.0 | 0.00 | 0.81 | 0.78 | 61 | 1011.1 |
| 20260902204335 | 90 | 234 | 3.0 | 7.0 | 0.00 | 0.81 | 0.78 | 59 | 1011.1 |
| 20260902204315 | 90 | 184 | 2.0 | 7.0 | 0.00 | 0.81 | 0.78 | 61 | 1011.1 |
| 20260902203335 | 89 | 173 | 2.0 | 7.0 | 0.00 | 0.81 | 0.78 | 61 | 1011.2 |
| 20260902203050 | 89 | 225 | 2.0 | 5.0 | 0.00 | 0.81 | 0.78 | 62 | 1011.1 |
| 20260902202334 | 89 | 213 | 2.0 | 7.0 | 0.00 | 0.81 | 0.78 | 61 | 1011.2 |
| 20260902201834 | 88 | 207 | 2.0 | 7.0 | 0.00 | 0.81 | 0.78 | 64 | 1011.2 |
| 20260902201334 | 88 | 161 | 1.0 | 6.0 | 0.00 | 0.81 | 0.78 | 64 | 1011.1 |
| 20260902200834 | 88 | 106 | 1.0 | 3.0 | 0.00 | 0.81 | 0.78 | 62 | 1011.1 |
| 20260902200335 | 89 | 157 | 1.0 | 3.0 | 0.00 | 0.81 | 0.78 | 64 | 1011.2 |
| 20260902195831 | 88 | 61 | 2.0 | 5.0 | 0.00 | 0.81 | 0.78 | 64 | 1011.3 |
| 20260902195818 | 88 | 34 | 2.0 | 6.0 | 0.00 | 0.81 | 0.78 | 63 | 1011.3 |
| 20260902194832 | 88 | 164 | 2.0 | 6.0 | 0.00 | 0.81 | 0.78 | 64 | 1011.4 |
| 20260902194332 | 87 | 182 | 2.0 | 5.0 | 0.00 | 0.81 | 0.78 | 64 | 1011.5 |
| 20260902193831 | 87 | 223 | 1.0 | 5.0 | 0.00 | 0.81 | 0.78 | 64 | 1011.7 |
| 20260902193331 | 86 | 196 | 2.0 | 8.0 | 0.00 | 0.81 | 0.78 | 65 | 1011.8 |
| 20260902192832 | 86 | 186 | 4.0 | 10.0 | 0.00 | 0.81 | 0.78 | 65 | 1012.0 |
| 20260902192331 | 86 | 172 | 5.0 | 10.0 | 0.00 | 0.81 | 0.78 | 66 | 1012.1 |
| 20260902192053 | 87 | 181 | 4.0 | 11.0 | 0.00 | 0.81 | 0.78 | 66 | 1012.1 |
| 20260902191327 | 88 | 173 | 3.0 | 11.0 | 0.00 | 0.81 | 0.78 | 63 | 1012.2 |
| 20260902191046 | 88 | 186 | 3.0 | 6.0 | 0.00 | 0.81 | 0.78 | 63 | 1012.3 |
| 20260902190327 | 88 | 221 | 2.0 | 6.0 | 0.00 | 0.81 | 0.78 | 62 | 1012.5 |
| 20260902185829 | 88 | 301 | 1.0 | 6.0 | 0.00 | 0.81 | 0.78 | 65 | 1012.4 |
| 20260902185327 | 88 | 205 | 2.0 | 8.0 | 0.00 | 0.81 | 0.78 | 63 | 1012.4 |
| 20260902184827 | 88 | 248 | 3.0 | 9.0 | 0.00 | 0.81 | 0.78 | 63 | 1012.4 |
| 20260902184327 | 88 | 158 | 2.0 | 9.0 | 0.00 | 0.81 | 0.78 | 64 | 1012.3 |
| 20260902183827 | 87 | 235 | 1.0 | 6.0 | 0.00 | 0.81 | 0.78 | 70 | 1012.4 |
| 20260902183813 | 87 | 242 | 1.0 | 3.0 | 0.00 | 0.81 | 0.78 | 67 | 1012.4 |
| 20260902182821 | 86 | 209 | 1.0 | 6.0 | 0.00 | 0.81 | 0.78 | 65 | 1012.6 |
| 20260902182315 | 86 | 209 | 3.0 | 6.0 | 0.00 | 0.81 | 0.78 | 66 | 1012.7 |
| 20260902181809 | 85 | 183 | 3.0 | 6.0 | 0.00 | 0.81 | 0.78 | 69 | 1012.7 |
| 20260902181303 | 85 | 204 | 3.0 | 9.0 | 0.00 | 0.81 | 0.78 | 70 | 1012.6 |
| 20260902180757 | 84 | 173 | 3.0 | 9.0 | 0.00 | 0.81 | 0.78 | 66 | 1012.7 |
| 20260902180252 | 84 | 171 | 2.0 | 8.0 | 0.00 | 0.81 | 0.78 | 69 | 1012.7 |
| 20260902175744 | 84 | 184 | 3.0 | 6.0 | 0.00 | 0.81 | 0.78 | 68 | 1012.7 |
| 20260902175239 | 83 | 206 | 4.0 | 9.0 | 0.00 | 0.81 | 0.78 | 69 | 1012.8 |
| 20260902174733 | 83 | 175 | 4.0 | 9.0 | 0.00 | 0.81 | 0.78 | 70 | 1012.7 |
| 20260902174227 | 82 | 178 | 3.0 | 8.0 | 0.00 | 0.81 | 0.78 | 70 | 1012.7 |
| 20260902173721 | 82 | 230 | 2.0 | 8.0 | 0.00 | 0.81 | 0.78 | 71 | 1012.7 |
| 20260902173215 | 82 | 163 | 2.0 | 8.0 | 0.00 | 0.81 | 0.78 | 71 | 1012.7 |
| 20260902172708 | 82 | 197 | 3.0 | 6.0 | 0.00 | 0.81 | 0.78 | 72 | 1012.7 |
| 20260902172203 | 82 | 184 | 3.0 | 9.0 | 0.00 | 0.81 | 0.78 | 72 | 1012.8 |
| 20260902171657 | 81 | 169 | 2.0 | 9.0 | 0.00 | 0.81 | 0.78 | 71 | 1012.9 |
| 20260902171420 | 81 | 196 | 1.0 | 5.0 | 0.00 | 0.81 | 0.78 | 73 | 1012.9 |
| 20260902170644 | 79 | 162 | 2.0 | 7.0 | 0.00 | 0.81 | 0.78 | 75 | 1012.8 |
| 20260902170139 | 79 | 153 | 2.0 | 7.0 | 0.00 | 0.81 | 0.78 | 74 | 1012.8 |
| 20260902165632 | 79 | 175 | 3.0 | 7.0 | 0.00 | 0.81 | 0.78 | 74 | 1012.8 |
| 20260902165348 | 78 | 171 | 1.0 | 8.0 | 0.00 | 0.81 | 0.78 | 75 | 1012.7 |
| 20260902164842 | 78 | 161 | 1.0 | 8.0 | 0.00 | 0.81 | 0.78 | 76 | 1012.7 |
| 20260902164115 | 78 | 153 | 1.0 | 7.0 | 0.00 | 0.81 | 0.78 | 75 | 1012.9 |
| 20260902163609 | 78 | 151 | 2.0 | 7.0 | 0.00 | 0.81 | 0.78 | 75 | 1012.9 |
| 20260902163303 | 77 | 153 | 2.0 | 5.0 | 0.00 | 0.81 | 0.78 | 77 | 1013.1 |
| 20260902163251 | 78 | 153 | 2.0 | 7.0 | 0.00 | 0.81 | 0.78 | 76 | 1013.0 |
| 20260902162051 | 77 | 86 | 2.0 | 7.0 | 0.00 | 0.81 | 0.78 | 77 | 1013.2 |
| 20260902161544 | 77 | 157 | 2.0 | 8.0 | 0.00 | 0.81 | 0.78 | 78 | 1013.3 |
| 20260902161039 | 76 | 153 | 4.0 | 9.0 | 0.00 | 0.81 | 0.78 | 81 | 1013.3 |
| 20260902160532 | 75 | 191 | 3.0 | 9.0 | 0.00 | 0.81 | 0.78 | 83 | 1013.4 |
| 20260902160027 | 73 | 146 | 1.0 | 5.0 | 0.00 | 0.81 | 0.78 | 88 | 1013.3 |
| 20260902155520 | 72 | 127 | 2.0 | 5.0 | 0.00 | 0.81 | 0.78 | 87 | 1013.2 |
| 20260902155232 | 72 | 167 | 4.0 | 11.0 | 0.00 | 0.81 | 0.78 | 88 | 1013.1 |
| 20260902154509 | 71 | 185 | 5.0 | 11.0 | 0.00 | 0.81 | 0.78 | 89 | 1013.0 |
| 20260902154225 | 71 | 182 | 5.0 | 9.0 | 0.00 | 0.81 | 0.78 | 89 | 1013.1 |
| 20260902153721 | 70 | 171 | 3.0 | 8.0 | 0.00 | 0.81 | 0.78 | 90 | 1012.9 |
| 20260902152950 | 70 | 176 | 4.0 | 10.0 | 0.00 | 0.81 | 0.78 | 90 | 1013.0 |
| 20260902152445 | 70 | 180 | 4.0 | 10.0 | 0.00 | 0.81 | 0.78 | 91 | 1013.0 |
| 20260902152159 | 70 | 177 | 2.0 | 6.0 | 0.00 | 0.81 | 0.78 | 91 | 1013.1 |
| 20260902151433 | 69 | 113 | 2.0 | 7.0 | 0.00 | 0.81 | 0.78 | 91 | 1013.2 |
| 20260902150926 | 69 | 179 | 3.0 | 6.0 | 0.00 | 0.81 | 0.78 | 91 | 1013.2 |
| 20260902150905 | 69 | 167 | 3.0 | 9.0 | 0.00 | 0.81 | 0.78 | 91 | 1013.1 |
| 20260902145915 | 69 | 161 | 3.0 | 9.0 | 0.00 | 0.81 | 0.78 | 92 | 1013.1 |
| 20260902145636 | 69 | 168 | 3.0 | 8.0 | 0.00 | 0.81 | 0.78 | 92 | 1013.2 |
| 20260902144903 | 68 | 167 | 2.0 | 8.0 | 0.00 | 0.81 | 0.78 | 92 | 1013.2 |
| 20260902144356 | 68 | 146 | 2.0 | 6.0 | 0.00 | 0.81 | 0.78 | 92 | 1013.0 |
| 20260902143851 | 68 | 95 | 2.0 | 6.0 | 0.00 | 0.81 | 0.78 | 92 | 1013.1 |
| 20260902143345 | 68 | 134 | 2.0 | 5.0 | 0.00 | 0.81 | 0.78 | 92 | 1013.2 |
| 20260902142838 | 68 | 161 | 1.0 | 5.0 | 0.00 | 0.81 | 0.78 | 92 | 1013.3 |
| 20260902142334 | 67 | 138 | 0.0 | 0.0 | 0.00 | 0.81 | 0.78 | 92 | 1013.3 |
| 20260902141827 | 67 | 99 | 0.0 | 0.0 | 0.00 | 0.81 | 0.78 | 92 | 1013.2 |
| 20260902141320 | 67 | 99 | 0.0 | 3.0 | 0.00 | 0.81 | 0.78 | 92 | 1013.2 |
| 20260902140815 | 67 | 99 | 1.0 | 3.0 | 0.00 | 0.81 | 0.78 | 92 | 1013.2 |
| 20260902140309 | 67 | 103 | 1.0 | 3.0 | 0.00 | 0.81 | 0.78 | 92 | 1013.2 |
| 20260902135803 | 67 | 103 | 1.0 | 3.0 | 0.00 | 0.81 | 0.78 | 92 | 1013.6 |
| 20260902135256 | 67 | 106 | 2.0 | 3.0 | 0.00 | 0.81 | 0.78 | 92 | 1013.8 |
| 20260902134750 | 66 | 84 | 2.0 | 4.0 | 0.00 | 0.81 | 0.78 | 92 | 1013.7 |
| 20260902134245 | 66 | 88 | 1.0 | 4.0 | 0.00 | 0.81 | 0.78 | 91 | 1013.7 |
| 20260902133739 | 66 | 95 | 1.0 | 3.0 | 0.00 | 0.81 | 0.78 | 91 | 1014.0 |
| 20260902133233 | 66 | 95 | 0.0 | 2.0 | 0.00 | 0.81 | 0.78 | 91 | 1014.0 |
| 20260902132727 | 66 | 95 | 0.0 | 2.0 | 0.00 | 0.81 | 0.78 | 91 | 1014.0 |
| 20260902132220 | 66 | 96 | 0.0 | 2.0 | 0.00 | 0.81 | 0.78 | 91 | 1014.5 |
| 20260902131715 | 66 | 96 | 1.0 | 2.0 | 0.00 | 0.81 | 0.78 | 91 | 1014.5 |
| 20260902131209 | 65 | 87 | 1.0 | 5.0 | 0.00 | 0.81 | 0.78 | 91 | 1014.1 |
| 20260902130702 | 65 | 87 | 3.0 | 6.0 | 0.00 | 0.81 | 0.78 | 91 | 1014.0 |
| 20260902130157 | 65 | 182 | 2.0 | 6.0 | 0.00 | 0.81 | 0.78 | 91 | 1014.0 |
| 20260902125650 | 65 | 171 | 1.0 | 6.0 | 0.00 | 0.81 | 0.78 | 91 | 1014.0 |
| 20260902125148 | 65 | 134 | 1.0 | 3.0 | 0.00 | 0.81 | 0.78 | 91 | 1014.0 |
| 20260902124648 | 65 | 134 | 0.0 | 3.0 | 0.00 | 0.81 | 0.78 | 91 | 1013.8 |
| 20260902124148 | 65 | 134 | 1.0 | 3.0 | 0.00 | 0.81 | 0.78 | 91 | 1013.6 |
| 20260902123648 | 65 | 134 | 1.0 | 3.0 | 0.00 | 0.81 | 0.78 | 91 | 1013.4 |
| 20260902123148 | 65 | 134 | 0.0 | 3.0 | 0.00 | 0.81 | 0.78 | 91 | 1013.4 |
| 20260902122648 | 65 | 134 | 0.0 | 2.0 | 0.01 | 0.81 | 0.78 | 91 | 1013.3 |
| 20260902122148 | 65 | 134 | 1.0 | 3.0 | 0.01 | 0.81 | 0.78 | 91 | 1013.2 |
| 20260902121649 | 65 | 134 | 1.0 | 3.0 | 0.01 | 0.81 | 0.78 | 91 | 1013.0 |
| 20260902121147 | 65 | 142 | 1.0 | 3.0 | 0.01 | 0.81 | 0.78 | 91 | 1013.2 |
| 20260902120907 | 65 | 90 | 1.0 | 3.0 | 0.01 | 0.81 | 0.78 | 91 | 1013.1 |
| 20260902120143 | 65 | 90 | 2.0 | 6.0 | 0.01 | 0.81 | 0.78 | 91 | 1012.9 |
| 20260902115643 | 65 | 91 | 1.0 | 6.0 | 0.02 | 0.81 | 0.78 | 91 | 1012.8 |
| 20260902115143 | 65 | 104 | 1.0 | 3.0 | 0.02 | 0.81 | 0.78 | 91 | 1012.8 |
| 20260902114641 | 65 | 103 | 2.0 | 6.0 | 0.03 | 0.81 | 0.78 | 91 | 1013.3 |
| 20260902114623 | 65 | 103 | 2.0 | 6.0 | 0.03 | 0.81 | 0.78 | 91 | 1013.5 |
| 20260902113640 | 65 | 74 | 1.0 | 4.0 | 0.05 | 0.81 | 0.78 | 91 | 1013.5 |
| 20260902113140 | 65 | 102 | 0.0 | 2.0 | 0.08 | 0.81 | 0.78 | 90 | 1014.4 |
| 20260902112859 | 65 | 162 | 1.0 | 6.0 | 0.11 | 0.80 | 0.77 | 90 | 1014.7 |
| 20260902112136 | 65 | 162 | 1.0 | 6.0 | 0.15 | 0.80 | 0.77 | 90 | 1014.8 |
| 20260902111855 | 65 | 159 | 0.0 | 6.0 | 0.15 | 0.80 | 0.77 | 90 | 1014.3 |
| 20260902111358 | 65 | 86 | 0.0 | 0.0 | 0.17 | 0.80 | 0.77 | 90 | 1014.3 |
| 20260902110637 | 65 | 86 | 0.0 | 0.0 | 0.23 | 0.80 | 0.77 | 90 | 1014.6 |
| 20260902110136 | 65 | 86 | 0.0 | 0.0 | 0.24 | 0.80 | 0.77 | 90 | 1014.5 |
| 20260902105637 | 65 | 84 | 0.0 | 0.0 | 0.23 | 0.79 | 0.76 | 90 | 1014.5 |
| 20260902105138 | 65 | 84 | 0.0 | 0.0 | 0.23 | 0.79 | 0.76 | 90 | 1014.0 |
| 20260902104637 | 66 | 176 | 2.0 | 8.0 | 0.22 | 0.78 | 0.76 | 90 | 1014.3 |
| 20260902104132 | 66 | 176 | 3.0 | 8.0 | 0.22 | 0.78 | 0.75 | 90 | 1014.8 |
| 20260902103633 | 66 | 183 | 3.0 | 7.0 | 0.20 | 0.76 | 0.74 | 90 | 1015.2 |
| 20260902103355 | 66 | 223 | 3.0 | 7.0 | 0.17 | 0.73 | 0.71 | 90 | 1014.3 |
| 20260902102851 | 66 | 159 | 4.0 | 9.0 | 0.13 | 0.69 | 0.67 | 90 | 1013.6 |
| 20260902102132 | 66 | 254 | 5.0 | 9.0 | 0.09 | 0.65 | 0.62 | 90 | 1014.7 |
| 20260902101853 | 66 | 229 | 4.0 | 10.0 | 0.09 | 0.65 | 0.62 | 90 | 1013.4 |
| 20260902101351 | 66 | 47 | 6.0 | 15.0 | 0.07 | 0.63 | 0.60 | 90 | 1011.8 |
| 20260902100633 | 66 | 98 | 7.0 | 15.0 | 0.01 | 0.57 | 0.54 | 90 | 1012.5 |
| 20260902100133 | 66 | 97 | 5.0 | 13.0 | 0.01 | 0.56 | 0.53 | 90 | 1012.9 |
| 20260902095628 | 67 | 96 | 5.0 | 12.0 | 0.02 | 0.56 | 0.53 | 90 | 1012.5 |
| 20260902095128 | 67 | 67 | 6.0 | 11.0 | 0.02 | 0.56 | 0.53 | 90 | 1013.1 |
| 20260902094626 | 67 | 92 | 5.0 | 10.0 | 0.03 | 0.56 | 0.53 | 90 | 1013.2 |
| 20260902094126 | 67 | 91 | 4.0 | 9.0 | 0.03 | 0.56 | 0.53 | 90 | 1013.1 |
| 20260902094114 | 67 | 114 | 4.0 | 9.0 | 0.03 | 0.56 | 0.53 | 90 | 1013.1 |
| 20260902093126 | 67 | 32 | 3.0 | 9.0 | 0.03 | 0.56 | 0.53 | 90 | 1012.5 |
| 20260902092848 | 67 | 101 | 2.0 | 9.0 | 0.03 | 0.56 | 0.53 | 90 | 1013.1 |
| 20260902092126 | 67 | 155 | 0.0 | 6.0 | 0.03 | 0.56 | 0.53 | 90 | 1013.8 |
| 20260902091626 | 67 | 100 | 1.0 | 3.0 | 0.03 | 0.56 | 0.53 | 90 | 1013.7 |
| 20260902091343 | 67 | 100 | 3.0 | 8.0 | 0.03 | 0.56 | 0.53 | 90 | 1014.0 |
| 20260902090626 | 67 | 101 | 3.0 | 8.0 | 0.03 | 0.56 | 0.53 | 90 | 1013.6 |
| 20260902090125 | 67 | 90 | 2.0 | 8.0 | 0.02 | 0.55 | 0.52 | 90 | 1013.4 |
| 20260902085624 | 67 | 88 | 3.0 | 8.0 | 0.01 | 0.54 | 0.51 | 90 | 1014.0 |
| 20260902085125 | 67 | 90 | 2.0 | 8.0 | 0.01 | 0.54 | 0.51 | 90 | 1013.9 |
| 20260902084622 | 67 | 96 | 2.0 | 6.0 | 0.01 | 0.53 | 0.50 | 90 | 1014.1 |
| 20260902084120 | 67 | 112 | 1.0 | 3.0 | 0.03 | 0.53 | 0.50 | 90 | 1013.8 |
| 20260902083620 | 67 | 140 | 1.0 | 3.0 | 0.08 | 0.53 | 0.50 | 90 | 1013.9 |
| 20260902083113 | 67 | 140 | 2.0 | 5.0 | 0.20 | 0.53 | 0.50 | 90 | 1014.3 |
| 20260902082608 | 67 | 140 | 2.0 | 5.0 | 0.42 | 0.53 | 0.50 | 90 | 1014.3 |
| 20260902082324 | 67 | 193 | 1.0 | 3.0 | 0.43 | 0.53 | 0.50 | 90 | 1014.3 |
| 20260902081555 | 67 | 299 | 2.0 | 5.0 | 0.43 | 0.53 | 0.50 | 90 | 1014.0 |
| 20260902081050 | 68 | 355 | 3.0 | 9.0 | 0.43 | 0.53 | 0.50 | 90 | 1013.3 |
| 20260902080543 | 68 | 332 | 2.0 | 9.0 | 0.43 | 0.53 | 0.50 | 90 | 1013.3 |
| 20260902080038 | 68 | 355 | 2.0 | 5.0 | 0.43 | 0.53 | 0.50 | 90 | 1013.4 |
| 20260902075531 | 68 | 24 | 3.0 | 10.0 | 0.43 | 0.53 | 0.50 | 90 | 1014.0 |
| 20260902075251 | 69 | 56 | 3.0 | 10.0 | 0.42 | 0.52 | 0.50 | 90 | 1014.8 |
| 20260902074520 | 69 | 111 | 3.0 | 11.0 | 0.42 | 0.52 | 0.49 | 90 | 1014.5 |
| 20260902074250 | 69 | 33 | 2.0 | 11.0 | 0.38 | 0.48 | 0.47 | 90 | 1015.4 |
| 20260902073507 | 69 | 250 | 4.0 | 13.0 | 0.33 | 0.43 | 0.41 | 90 | 1015.9 |
| 20260902073001 | 69 | 28 | 8.0 | 20.0 | 0.20 | 0.30 | 0.29 | 90 | 1015.7 |
| 20260902072455 | 69 | 274 | 5.0 | 20.0 | 0.00 | 0.10 | 0.07 | 90 | 1016.0 |
| 20260902071950 | 69 | 256 | 0.0 | 10.0 | 0.00 | 0.10 | 0.07 | 90 | 1012.3 |
| 20260902071444 | 69 | 76 | 0.0 | 0.0 | 0.00 | 0.10 | 0.07 | 90 | 1011.5 |
| 20260902070937 | 69 | 108 | 0.0 | 0.0 | 0.00 | 0.10 | 0.07 | 89 | 1011.6 |
| 20260902070432 | 69 | 155 | 0.0 | 0.0 | 0.00 | 0.10 | 0.07 | 89 | 1011.9 |